Time,TemperatureF,DewpointF,PressureIn,WindDirection,WindDirectionDegrees,WindSpeedMPH,WindSpeedGustMPH,Humidity,HourlyPrecipIn,Conditions,Clouds,dailyrainin,SolarRadiationWatts/m^2,SoftwareType,DateUTC
2013-06-10 00:00:00,71.1,47.7,29.61,SSW,202,0.0,-999.0,35,-99.99,,,0.00,0.0,cwc,2013-06-10 06:00:00,
2013-06-10 00:05:00,70.6,47.2,29.62,SSW,202,0.0,-999.0,35,-99.99,,,0.00,0.0,cwc,2013-06-10 06:05:00,
2013-06-10 00:15:00,69.9,45.8,29.62,SSW,202,0.0,-999.0,33,-99.99,,,0.00,0.0,cwc,2013-06-10 06:15:00,
2013-06-10 00:20:00,69.7,47.0,29.62,SSW,202,3.0,-999.0,37,-99.99,,,0.00,0.0,cwc,2013-06-10 06:20:00,
2013-06-10 00:25:00,69.4,47.1,29.62,SSW,203,2.0,-999.0,38,-99.99,,,0.00,0.0,cwc,2013-06-10 06:25:00,
2013-06-10 00:30:00,69.4,47.4,29.62,SSW,212,3.0,-999.0,39,-99.99,,,0.00,0.0,cwc,2013-06-10 06:30:00,
2013-06-10 00:40:00,69.4,47.4,29.62,SW,217,2.0,-999.0,39,-99.99,,,0.00,0.0,cwc,2013-06-10 06:40:00,
2013-06-10 00:45:00,69.4,47.8,29.62,SW,226,2.0,-999.0,40,-99.99,,,0.00,0.0,cwc,2013-06-10 06:45:00,
2013-06-10 00:55:00,69.5,47.5,29.62,WSW,238,3.0,-999.0,39,-99.99,,,0.00,0.0,cwc,2013-06-10 06:55:00,
2013-06-10 01:00:00,69.5,47.2,29.62,WSW,246,0.0,-999.0,38,-99.99,,,0.00,0.0,cwc,2013-06-10 07:00:00,
2013-06-10 01:05:00,69.4,47.1,29.62,WSW,254,2.0,-999.0,38,-99.99,,,0.00,0.0,cwc,2013-06-10 07:05:00,
2013-06-10 01:10:00,69.3,47.0,29.62,West,259,2.0,-999.0,38,-99.99,,,0.00,0.0,cwc,2013-06-10 07:10:00,
2013-06-10 01:15:00,69.1,46.8,29.62,West,259,0.0,-999.0,38,-99.99,,,0.00,0.0,cwc,2013-06-10 07:15:00,
2013-06-10 01:20:00,68.9,46.9,29.62,West,259,3.0,-999.0,39,-99.99,,,0.00,0.0,cwc,2013-06-10 07:20:00,
2013-06-10 01:25:00,68.7,46.7,29.62,West,259,4.0,-999.0,39,-99.99,,,0.00,0.0,cwc,2013-06-10 07:25:00,
2013-06-10 01:30:00,68.5,46.5,29.62,West,259,2.0,-999.0,39,-99.99,,,0.00,0.0,cwc,2013-06-10 07:30:00,
2013-06-10 01:35:00,68.3,46.3,29.62,West,259,4.0,-999.0,39,-99.99,,,0.00,0.0,cwc,2013-06-10 07:35:00,
2013-06-10 01:40:00,68.1,46.1,29.62,West,259,2.0,-999.0,39,-99.99,,,0.00,0.0,cwc,2013-06-10 07:40:00,
2013-06-10 01:45:00,67.8,45.8,29.63,West,259,2.0,-999.0,39,-99.99,,,0.00,0.0,cwc,2013-06-10 07:45:00,
2013-06-10 01:50:00,67.6,45.6,29.63,West,259,0.0,-999.0,39,-99.99,,,0.00,0.0,cwc,2013-06-10 07:50:00,
2013-06-10 02:00:00,67.2,45.6,29.63,West,259,1.0,-999.0,40,-99.99,,,0.00,0.0,cwc,2013-06-10 08:00:00,
2013-06-10 02:10:00,67.0,45.4,29.63,West,263,0.0,-999.0,40,-99.99,,,0.00,0.0,cwc,2013-06-10 08:10:00,
2013-06-10 02:15:00,66.8,45.6,29.63,West,263,1.0,-999.0,41,-99.99,,,0.00,0.0,cwc,2013-06-10 08:15:00,
2013-06-10 02:20:00,66.6,45.4,29.63,West,263,0.0,-999.0,41,-99.99,,,0.00,0.0,cwc,2013-06-10 08:20:00,
2013-06-10 02:25:00,66.2,45.0,29.63,West,263,0.0,-999.0,41,-99.99,,,0.00,0.0,cwc,2013-06-10 08:25:00,
2013-06-10 02:30:00,65.4,44.5,29.63,West,263,4.0,-999.0,42,-99.99,,,0.00,0.0,cwc,2013-06-10 08:30:00,
2013-06-10 02:35:00,65.2,44.3,29.63,West,263,0.0,-999.0,42,-99.99,,,0.00,0.0,cwc,2013-06-10 08:35:00,
2013-06-10 02:40:00,65.0,44.8,29.63,West,263,1.0,-999.0,44,-99.99,,,0.00,0.0,cwc,2013-06-10 08:40:00,
2013-06-10 02:45:00,64.9,44.4,29.63,West,263,0.0,-999.0,43,-99.99,,,0.00,0.0,cwc,2013-06-10 08:45:00,
2013-06-10 02:50:00,64.7,44.2,29.63,West,263,0.0,-999.0,43,-99.99,,,0.00,0.0,cwc,2013-06-10 08:50:00,
2013-06-10 02:55:00,64.1,43.6,29.63,West,263,0.0,-999.0,43,-99.99,,,0.00,0.0,cwc,2013-06-10 08:55:00,
2013-06-10 03:00:00,63.5,43.3,29.63,West,263,0.0,-999.0,44,-99.99,,,0.00,0.0,cwc,2013-06-10 09:00:00,
2013-06-10 03:05:00,62.6,42.8,29.63,West,263,0.0,-999.0,45,-99.99,,,0.00,0.0,cwc,2013-06-10 09:05:00,
2013-06-10 03:10:00,62.2,43.1,29.63,West,263,0.0,-999.0,47,-99.99,,,0.00,0.0,cwc,2013-06-10 09:10:00,
2013-06-10 03:15:00,61.9,41.7,29.63,West,263,0.0,-999.0,44,-99.99,,,0.00,0.0,cwc,2013-06-10 09:15:00,
2013-06-10 03:20:00,61.5,42.1,29.64,West,263,0.0,-999.0,46,-99.99,,,0.00,0.0,cwc,2013-06-10 09:20:00,
2013-06-10 03:25:00,61.1,41.7,29.64,West,263,1.0,-999.0,46,-99.99,,,0.00,0.0,cwc,2013-06-10 09:25:00,
2013-06-10 03:30:00,60.8,42.1,29.64,West,263,1.0,-999.0,48,-99.99,,,0.00,0.0,cwc,2013-06-10 09:30:00,
2013-06-10 03:35:00,60.7,42.0,29.64,West,263,0.0,-999.0,48,-99.99,,,0.00,0.0,cwc,2013-06-10 09:35:00,
2013-06-10 03:40:00,60.5,41.4,29.64,West,263,1.0,-999.0,47,-99.99,,,0.00,0.0,cwc,2013-06-10 09:40:00,
2013-06-10 03:45:00,60.0,41.6,29.64,West,263,0.0,-999.0,49,-99.99,,,0.00,0.0,cwc,2013-06-10 09:45:00,
2013-06-10 03:50:00,59.8,42.2,29.64,West,263,1.0,-999.0,51,-99.99,,,0.00,0.0,cwc,2013-06-10 09:50:00,
2013-06-10 03:55:00,60.0,41.3,29.64,West,264,0.0,-999.0,48,-99.99,,,0.00,0.0,cwc,2013-06-10 09:55:00,
2013-06-10 04:00:00,59.5,41.1,29.65,West,263,3.0,-999.0,49,-99.99,,,0.00,0.0,cwc,2013-06-10 10:00:00,
2013-06-10 04:05:00,59.0,41.0,29.65,West,263,2.0,-999.0,50,-99.99,,,0.00,0.0,cwc,2013-06-10 10:05:00,
2013-06-10 04:10:00,59.0,41.4,29.65,West,263,4.0,-999.0,51,-99.99,,,0.00,0.0,cwc,2013-06-10 10:10:00,
2013-06-10 04:15:00,59.0,41.7,29.65,West,263,4.0,-999.0,52,-99.99,,,0.00,0.0,cwc,2013-06-10 10:15:00,
2013-06-10 04:20:00,59.0,41.4,29.65,West,263,2.0,-999.0,51,-99.99,,,0.00,0.0,cwc,2013-06-10 10:20:00,
2013-06-10 04:25:00,59.4,41.0,29.65,West,263,2.0,-999.0,49,-99.99,,,0.00,0.0,cwc,2013-06-10 10:25:00,
2013-06-10 04:30:00,59.0,41.0,29.65,West,263,2.0,-999.0,50,-99.99,,,0.00,0.0,cwc,2013-06-10 10:30:00,
2013-06-10 04:35:00,59.0,41.4,29.65,West,263,1.0,-999.0,51,-99.99,,,0.00,0.0,cwc,2013-06-10 10:35:00,
2013-06-10 04:40:00,58.9,41.3,29.65,West,263,1.0,-999.0,51,-99.99,,,0.00,0.0,cwc,2013-06-10 10:40:00,
2013-06-10 04:45:00,59.0,41.0,29.66,West,263,3.0,-999.0,50,-99.99,,,0.00,0.0,cwc,2013-06-10 10:45:00,
2013-06-10 04:50:00,58.6,40.6,29.66,West,263,2.0,-999.0,50,-99.99,,,0.00,0.0,cwc,2013-06-10 10:50:00,
2013-06-10 04:55:00,58.1,40.5,29.66,West,263,2.0,-999.0,51,-99.99,,,0.00,0.0,cwc,2013-06-10 10:55:00,
2013-06-10 05:00:00,57.8,40.5,29.66,West,263,0.0,-999.0,52,-99.99,,,0.00,0.0,cwc,2013-06-10 11:00:00,
2013-06-10 05:10:00,57.2,40.3,29.66,West,263,1.0,-999.0,53,-99.99,,,0.00,0.0,cwc,2013-06-10 11:10:00,
2013-06-10 05:20:00,56.8,39.5,29.67,West,263,1.0,-999.0,52,-99.99,,,0.00,0.0,cwc,2013-06-10 11:20:00,
2013-06-10 05:25:00,56.4,39.5,29.66,West,263,0.0,-999.0,53,-99.99,,,0.00,0.0,cwc,2013-06-10 11:25:00,
2013-06-10 05:30:00,56.3,39.7,29.67,West,263,0.0,-999.0,54,-99.99,,,0.00,0.0,cwc,2013-06-10 11:30:00,
2013-06-10 05:35:00,56.2,39.6,29.67,West,263,0.0,-999.0,54,-99.99,,,0.00,0.0,cwc,2013-06-10 11:35:00,
2013-06-10 05:40:00,56.3,39.4,29.67,West,263,0.0,-999.0,53,-99.99,,,0.00,0.0,cwc,2013-06-10 11:40:00,
2013-06-10 05:45:00,56.2,39.3,29.67,West,263,2.0,-999.0,53,-99.99,,,0.00,0.0,cwc,2013-06-10 11:45:00,
2013-06-10 05:50:00,56.1,39.2,29.68,West,263,1.0,-999.0,53,-99.99,,,0.00,5.0,cwc,2013-06-10 11:50:00,
2013-06-10 05:55:00,56.0,39.1,29.68,West,263,0.0,-999.0,53,-99.99,,,0.00,7.0,cwc,2013-06-10 11:55:00,
2013-06-10 06:00:00,55.8,38.9,29.68,West,263,0.0,-999.0,53,-99.99,,,0.00,9.0,cwc,2013-06-10 12:00:00,
2013-06-10 06:10:00,55.6,39.4,29.68,West,264,0.0,-999.0,55,-99.99,,,0.00,18.0,cwc,2013-06-10 12:10:00,
2013-06-10 06:15:00,55.4,38.8,29.68,West,263,1.0,-999.0,54,-99.99,,,0.00,26.0,cwc,2013-06-10 12:15:00,
2013-06-10 06:25:00,55.5,39.3,29.68,West,263,0.0,-999.0,55,-99.99,,,0.00,51.0,cwc,2013-06-10 12:25:00,
2013-06-10 06:30:00,55.5,39.7,29.69,West,263,0.0,-999.0,56,-99.99,,,0.00,65.0,cwc,2013-06-10 12:30:00,
2013-06-10 06:35:00,55.7,40.2,29.69,West,264,0.0,-999.0,57,-99.99,,,0.00,77.0,cwc,2013-06-10 12:35:00,
2013-06-10 06:40:00,55.9,40.8,29.69,West,263,0.0,-999.0,58,-99.99,,,0.00,93.0,cwc,2013-06-10 12:40:00,
2013-06-10 06:45:00,56.2,41.1,29.69,West,263,0.0,-999.0,58,-99.99,,,0.00,109.0,cwc,2013-06-10 12:45:00,
2013-06-10 06:50:00,56.5,41.4,29.69,West,263,0.0,-999.0,58,-99.99,,,0.00,127.0,cwc,2013-06-10 12:50:00,
2013-06-10 06:55:00,56.9,41.8,29.69,West,263,0.0,-999.0,58,-99.99,,,0.00,148.0,cwc,2013-06-10 12:55:00,
2013-06-10 07:00:00,57.4,41.9,29.69,West,263,0.0,-999.0,57,-99.99,,,0.00,169.0,cwc,2013-06-10 13:00:00,
2013-06-10 07:10:00,58.7,43.6,29.69,West,263,0.0,-999.0,58,-99.99,,,0.00,204.0,cwc,2013-06-10 13:10:00,
2013-06-10 07:15:00,59.4,42.5,29.69,West,264,0.0,-999.0,53,-99.99,,,0.00,221.0,cwc,2013-06-10 13:15:00,
2013-06-10 07:20:00,60.7,44.1,29.69,West,263,0.0,-999.0,54,-99.99,,,0.00,241.0,cwc,2013-06-10 13:20:00,
2013-06-10 07:25:00,62.0,45.1,29.69,West,263,0.0,-999.0,53,-99.99,,,0.00,257.0,cwc,2013-06-10 13:25:00,
2013-06-10 07:30:00,63.1,45.8,29.69,West,263,3.0,-999.0,52,-99.99,,,0.00,274.0,cwc,2013-06-10 13:30:00,
2013-06-10 07:35:00,63.7,46.4,29.69,West,263,2.0,-999.0,52,-99.99,,,0.00,292.0,cwc,2013-06-10 13:35:00,
2013-06-10 07:40:00,63.9,46.3,29.69,West,263,1.0,-999.0,51,-99.99,,,0.00,306.0,cwc,2013-06-10 13:40:00,
2013-06-10 07:45:00,64.6,46.6,29.68,West,263,2.0,-999.0,50,-99.99,,,0.00,323.0,cwc,2013-06-10 13:45:00,
2013-06-10 07:50:00,65.7,47.7,29.69,West,263,3.0,-999.0,50,-99.99,,,0.00,343.0,cwc,2013-06-10 13:50:00,
2013-06-10 07:55:00,66.6,47.2,29.69,West,264,2.0,-999.0,46,-99.99,,,0.00,360.0,cwc,2013-06-10 13:55:00,
2013-06-10 08:00:00,67.2,47.0,29.69,West,263,2.0,-999.0,44,-99.99,,,0.00,378.0,cwc,2013-06-10 14:00:00,
2013-06-10 08:05:00,67.8,47.3,29.68,West,263,1.0,-999.0,43,-99.99,,,0.00,396.0,cwc,2013-06-10 14:05:00,
2013-06-10 08:10:00,68.8,47.9,29.68,West,263,0.0,-999.0,42,-99.99,,,0.00,411.0,cwc,2013-06-10 14:10:00,
2013-06-10 08:15:00,69.5,47.9,29.68,West,263,0.0,-999.0,40,-99.99,,,0.00,425.0,cwc,2013-06-10 14:15:00,
2013-06-10 08:20:00,69.9,47.9,29.68,West,263,0.0,-999.0,39,-99.99,,,0.00,443.0,cwc,2013-06-10 14:20:00,
2013-06-10 08:25:00,70.5,48.9,29.68,West,263,0.0,-999.0,40,-99.99,,,0.00,461.0,cwc,2013-06-10 14:25:00,
2013-06-10 08:30:00,71.3,49.0,29.68,West,263,1.0,-999.0,38,-99.99,,,0.00,478.0,cwc,2013-06-10 14:30:00,
2013-06-10 08:40:00,72.8,50.1,29.68,West,263,0.0,-999.0,37,-99.99,,,0.00,513.0,cwc,2013-06-10 14:40:00,
2013-06-10 08:45:00,73.4,50.4,29.68,West,263,0.0,-999.0,36,-99.99,,,0.00,529.0,cwc,2013-06-10 14:45:00,
2013-06-10 08:50:00,74.2,51.2,29.68,West,265,2.0,-999.0,36,-99.99,,,0.00,541.0,cwc,2013-06-10 14:50:00,
2013-06-10 08:55:00,74.8,51.8,29.67,West,265,1.0,-999.0,36,-99.99,,,0.00,559.0,cwc,2013-06-10 14:55:00,
2013-06-10 09:00:00,75.7,52.3,29.67,West,265,2.0,-999.0,35,-99.99,,,0.00,577.0,cwc,2013-06-10 15:00:00,
2013-06-10 09:05:00,76.7,52.9,29.67,West,265,1.0,-999.0,34,-99.99,,,0.00,592.0,cwc,2013-06-10 15:05:00,
2013-06-10 09:10:00,77.3,53.2,29.67,West,265,3.0,-999.0,33,-99.99,,,0.00,608.0,cwc,2013-06-10 15:10:00,
2013-06-10 09:15:00,77.6,53.1,29.67,WNW,294,4.0,-999.0,32,-99.99,,,0.00,626.0,cwc,2013-06-10 15:15:00,
2013-06-10 09:20:00,77.8,53.7,29.66,WNW,294,3.0,-999.0,33,-99.99,,,0.00,640.0,cwc,2013-06-10 15:20:00,
2013-06-10 09:25:00,78.2,53.7,29.66,WNW,302,3.0,-999.0,32,-99.99,,,0.00,652.0,cwc,2013-06-10 15:25:00,
2013-06-10 09:30:00,78.7,54.2,29.66,WNW,302,2.0,-999.0,32,-99.99,,,0.00,664.0,cwc,2013-06-10 15:30:00,
2013-06-10 09:35:00,79.3,54.5,29.66,WNW,302,2.0,-999.0,31,-99.99,,,0.00,680.0,cwc,2013-06-10 15:35:00,
2013-06-10 09:40:00,80.0,55.2,29.66,WNW,302,4.0,-999.0,31,-99.99,,,0.00,696.0,cwc,2013-06-10 15:40:00,
2013-06-10 09:45:00,80.5,55.7,29.66,WNW,302,2.0,-999.0,31,-99.99,,,0.00,710.0,cwc,2013-06-10 15:45:00,
2013-06-10 09:50:00,81.4,56.2,29.66,WNW,302,4.0,-999.0,30,-99.99,,,0.00,721.0,cwc,2013-06-10 15:50:00,
2013-06-10 09:55:00,82.3,57.1,29.65,WNW,302,1.0,-999.0,30,-99.99,,,0.00,738.0,cwc,2013-06-10 15:55:00,
2013-06-10 10:00:00,83.5,57.9,29.65,NW,304,3.0,-999.0,29,-99.99,,,0.00,747.0,cwc,2013-06-10 16:00:00,
2013-06-10 10:05:00,84.3,58.4,29.64,NNW,346,7.0,-999.0,28,-99.99,,,0.00,761.0,cwc,2013-06-10 16:05:00,
2013-06-10 10:10:00,84.4,58.5,29.65,WNW,299,1.0,-999.0,28,-99.99,,,0.00,777.0,cwc,2013-06-10 16:10:00,
2013-06-10 10:15:00,84.8,58.9,29.65,WNW,284,0.0,-999.0,28,-99.99,,,0.00,784.0,cwc,2013-06-10 16:15:00,
2013-06-10 10:20:00,85.3,59.0,29.64,West,280,0.0,-999.0,27,-99.99,,,0.00,796.0,cwc,2013-06-10 16:20:00,
2013-06-10 10:25:00,85.6,59.0,29.64,WSW,250,6.0,-999.0,26,-99.99,,,0.00,807.0,cwc,2013-06-10 16:25:00,
2013-06-10 10:30:00,85.4,59.1,29.64,SW,227,6.0,-999.0,27,-99.99,,,0.00,812.0,cwc,2013-06-10 16:30:00,
2013-06-10 10:35:00,85.2,58.9,29.64,SW,227,3.0,-999.0,27,-99.99,,,0.00,828.0,cwc,2013-06-10 16:35:00,
2013-06-10 10:40:00,85.7,59.4,29.64,South,182,8.0,-999.0,27,-99.99,,,0.00,840.0,cwc,2013-06-10 16:40:00,
2013-06-10 10:45:00,86.0,59.4,29.63,SSW,194,7.0,-999.0,26,-99.99,,,0.00,846.0,cwc,2013-06-10 16:45:00,
2013-06-10 10:50:00,86.3,59.7,29.63,SSE,166,2.0,-999.0,26,-99.99,,,0.00,860.0,cwc,2013-06-10 16:50:00,
2013-06-10 10:55:00,86.8,59.4,29.63,South,173,7.0,-999.0,24,-99.99,,,0.00,870.0,cwc,2013-06-10 16:55:00,
2013-06-10 11:00:00,87.0,60.0,29.63,South,171,5.0,-999.0,25,-99.99,,,0.00,888.0,cwc,2013-06-10 17:00:00,
2013-06-10 11:05:00,87.3,60.3,29.63,South,184,2.0,-999.0,25,-99.99,,,0.00,898.0,cwc,2013-06-10 17:05:00,
2013-06-10 11:10:00,87.4,60.0,29.62,SW,217,7.0,-999.0,24,-99.99,,,0.00,909.0,cwc,2013-06-10 17:10:00,
2013-06-10 11:15:00,87.4,60.0,29.62,SW,234,0.0,-999.0,24,-99.99,,,0.00,914.0,cwc,2013-06-10 17:15:00,
2013-06-10 11:20:00,87.7,60.3,29.62,SW,214,5.0,-999.0,24,-99.99,,,0.00,921.0,cwc,2013-06-10 17:20:00,
2013-06-10 11:25:00,88.3,60.6,29.62,SSW,207,4.0,-999.0,23,-99.99,,,0.00,933.0,cwc,2013-06-10 17:25:00,
2013-06-10 11:30:00,89.0,61.3,29.61,SSW,205,4.0,-999.0,23,-99.99,,,0.00,940.0,cwc,2013-06-10 17:30:00,
2013-06-10 11:35:00,89.6,61.9,29.61,SSW,206,5.0,-999.0,23,-99.99,,,0.00,949.0,cwc,2013-06-10 17:35:00,
2013-06-10 11:40:00,90.2,62.5,29.60,SSW,203,2.0,-999.0,23,-99.99,,,0.00,953.0,cwc,2013-06-10 17:40:00,
2013-06-10 11:45:00,90.2,62.1,29.60,SSW,200,4.0,-999.0,22,-99.99,,,0.00,956.0,cwc,2013-06-10 17:45:00,
2013-06-10 11:55:00,90.2,62.1,29.59,SW,226,7.0,-999.0,22,-99.99,,,0.00,977.0,cwc,2013-06-10 17:55:00,
2013-06-10 12:00:00,90.7,62.3,29.59,SW,217,0.0,-999.0,21,-99.99,,,0.00,974.0,cwc,2013-06-10 18:00:00,
2013-06-10 12:05:00,91.0,62.2,29.59,SSE,165,5.0,-999.0,20,-99.99,,,0.00,991.0,cwc,2013-06-10 18:05:00,
2013-06-10 12:10:00,91.3,62.5,29.59,SW,224,3.0,-999.0,20,-99.99,,,0.00,991.0,cwc,2013-06-10 18:10:00,
2013-06-10 12:15:00,91.7,62.2,29.58,SSW,202,6.0,-999.0,18,-99.99,,,0.00,1000.0,cwc,2013-06-10 18:15:00,
2013-06-10 12:20:00,92.0,62.1,29.58,SSW,200,4.0,-999.0,17,-99.99,,,0.00,1011.0,cwc,2013-06-10 18:20:00,
2013-06-10 12:25:00,91.9,62.4,29.58,SW,222,7.0,-999.0,18,-99.99,,,0.00,1025.0,cwc,2013-06-10 18:25:00,
2013-06-10 12:30:00,92.2,62.3,29.58,SSW,203,10.0,-999.0,17,-99.99,,,0.00,1021.0,cwc,2013-06-10 18:30:00,
2013-06-10 12:35:00,92.1,62.2,29.57,SSW,210,6.0,-999.0,17,-99.99,,,0.00,1037.0,cwc,2013-06-10 18:35:00,
2013-06-10 12:40:00,92.9,62.3,29.57,South,175,3.0,-999.0,15,-99.99,,,0.00,1083.0,cwc,2013-06-10 18:40:00,
2013-06-10 12:45:00,93.5,62.9,29.57,South,179,4.0,-999.0,15,-99.99,,,0.00,1107.0,cwc,2013-06-10 18:45:00,
2013-06-10 12:55:00,94.2,62.9,29.56,SSW,194,6.0,-999.0,13,-99.99,,,0.00,1058.0,cwc,2013-06-10 18:55:00,
2013-06-10 13:00:00,94.3,63.0,29.56,WSW,237,4.0,-999.0,13,-99.99,,,0.00,1178.0,cwc,2013-06-10 19:00:00,
2013-06-10 13:05:00,94.8,63.1,29.56,WSW,237,7.0,-999.0,12,-99.99,,,0.00,1188.0,cwc,2013-06-10 19:05:00,
2013-06-10 13:10:00,94.8,63.1,29.56,WSW,242,10.0,-999.0,12,-99.99,,,0.00,976.0,cwc,2013-06-10 19:10:00,
2013-06-10 13:15:00,94.9,63.2,29.56,SW,216,7.0,-999.0,12,-99.99,,,0.00,1288.0,cwc,2013-06-10 19:15:00,
2013-06-10 13:20:00,94.6,62.9,29.56,South,185,0.0,-999.0,12,-99.99,,,0.00,1331.0,cwc,2013-06-10 19:20:00,
2013-06-10 13:25:00,94.7,63.4,29.56,SSW,200,10.0,-999.0,13,-99.99,,,0.00,1341.0,cwc,2013-06-10 19:25:00,
2013-06-10 13:30:00,94.8,63.5,29.55,SSW,198,17.0,-999.0,13,-99.99,,,0.00,485.0,cwc,2013-06-10 19:30:00,
2013-06-10 13:35:00,94.4,63.1,29.55,SSW,209,0.0,-999.0,13,-99.99,,,0.00,640.0,cwc,2013-06-10 19:35:00,
2013-06-10 13:40:00,95.2,64.2,29.55,South,170,1.0,-999.0,14,-99.99,,,0.00,1153.0,cwc,2013-06-10 19:40:00,
2013-06-10 13:45:00,95.8,64.5,29.55,South,180,10.0,-999.0,13,-99.99,,,0.00,907.0,cwc,2013-06-10 19:45:00,
2013-06-10 13:50:00,95.9,64.6,29.55,South,172,6.0,-999.0,13,-99.99,,,0.00,805.0,cwc,2013-06-10 19:50:00,
2013-06-10 13:55:00,95.2,63.9,29.55,SSW,201,5.0,-999.0,13,-99.99,,,0.00,617.0,cwc,2013-06-10 19:55:00,
2013-06-10 14:00:00,94.5,63.2,29.55,South,176,4.0,-999.0,13,-99.99,,,0.00,564.0,cwc,2013-06-10 20:00:00,
2013-06-10 14:05:00,94.4,63.1,29.55,SSW,210,15.0,-999.0,13,-99.99,,,0.00,1076.0,cwc,2013-06-10 20:05:00,
2013-06-10 14:10:00,94.8,63.1,29.54,SSW,202,0.0,-999.0,12,-99.99,,,0.00,1143.0,cwc,2013-06-10 20:10:00,
2013-06-10 14:15:00,95.1,63.4,29.54,SSW,202,0.0,-999.0,12,-99.99,,,0.00,1041.0,cwc,2013-06-10 20:15:00,
2013-06-10 14:20:00,95.8,64.5,29.54,NE,41,2.0,-999.0,13,-99.99,,,0.00,977.0,cwc,2013-06-10 20:20:00,
2013-06-10 14:30:00,96.2,64.5,29.54,NE,41,9.0,-999.0,12,-99.99,,,0.00,1107.0,cwc,2013-06-10 20:30:00,
2013-06-10 14:35:00,95.8,64.1,29.53,ENE,71,11.0,-999.0,12,-99.99,,,0.00,1125.0,cwc,2013-06-10 20:35:00,
2013-06-10 14:40:00,95.5,63.8,29.52,NE,37,11.0,-999.0,12,-99.99,,,0.00,1071.0,cwc,2013-06-10 20:40:00,
2013-06-10 14:45:00,94.4,63.1,29.52,ENE,59,10.0,-999.0,13,-99.99,,,0.00,260.0,cwc,2013-06-10 20:45:00,
2013-06-10 14:50:00,93.1,61.8,29.53,NE,34,17.0,-999.0,13,-99.99,,,0.00,285.0,cwc,2013-06-10 20:50:00,
2013-06-10 15:00:00,91.5,60.5,29.53,North,10,15.0,-999.0,14,-99.99,,,0.00,434.0,cwc,2013-06-10 21:00:00,
2013-06-10 15:05:00,91.6,60.6,29.52,NNW,335,4.0,-999.0,14,-99.99,,,0.00,1137.0,cwc,2013-06-10 21:05:00,
2013-06-10 15:10:00,92.0,60.7,29.52,NNE,18,8.0,-999.0,13,-99.99,,,0.00,1025.0,cwc,2013-06-10 21:10:00,
2013-06-10 15:15:00,92.9,61.6,29.52,ENE,65,3.0,-999.0,13,-99.99,,,0.00,868.0,cwc,2013-06-10 21:15:00,
2013-06-10 15:20:00,93.4,62.1,29.52,NE,39,5.0,-999.0,13,-99.99,,,0.00,821.0,cwc,2013-06-10 21:20:00,
2013-06-10 15:25:00,93.7,62.4,29.52,ENE,58,4.0,-999.0,13,-99.99,,,0.00,339.0,cwc,2013-06-10 21:25:00,
2013-06-10 15:30:00,93.8,62.5,29.52,NE,34,1.0,-999.0,13,-99.99,,,0.00,874.0,cwc,2013-06-10 21:30:00,
2013-06-10 15:35:00,94.0,62.7,29.52,NE,56,6.0,-999.0,13,-99.99,,,0.00,204.0,cwc,2013-06-10 21:35:00,
2013-06-10 15:40:00,93.4,62.4,29.51,NE,54,11.0,-999.0,14,-99.99,,,0.00,243.0,cwc,2013-06-10 21:40:00,
2013-06-10 15:45:00,93.3,62.3,29.51,North,5,9.0,-999.0,14,-99.99,,,0.00,795.0,cwc,2013-06-10 21:45:00,
2013-06-10 15:50:00,93.6,62.6,29.52,NNE,28,14.0,-999.0,14,-99.99,,,0.00,754.0,cwc,2013-06-10 21:50:00,
2013-06-10 15:55:00,93.5,62.5,29.51,NE,51,3.0,-999.0,14,-99.99,,,0.00,696.0,cwc,2013-06-10 21:55:00,
2013-06-10 16:00:00,93.9,62.6,29.51,North,5,4.0,-999.0,13,-99.99,,,0.00,468.0,cwc,2013-06-10 22:00:00,
2013-06-10 16:05:00,93.9,62.9,29.51,SSW,196,11.0,-999.0,14,-99.99,,,0.00,455.0,cwc,2013-06-10 22:05:00,
2013-06-10 16:10:00,93.5,62.2,29.51,SW,219,1.0,-999.0,13,-99.99,,,0.00,281.0,cwc,2013-06-10 22:10:00,
2013-06-10 16:15:00,93.2,61.9,29.51,SSE,165,0.0,-999.0,13,-99.99,,,0.00,232.0,cwc,2013-06-10 22:15:00,
2013-06-10 16:25:00,92.8,61.8,29.51,SW,229,11.0,-999.0,14,-99.99,,,0.00,336.0,cwc,2013-06-10 22:25:00,
2013-06-10 16:30:00,92.9,61.6,29.51,ENE,68,2.0,-999.0,13,-99.99,,,0.00,452.0,cwc,2013-06-10 22:30:00,
2013-06-10 16:35:00,92.9,61.6,29.51,East,81,5.0,-999.0,13,-99.99,,,0.00,446.0,cwc,2013-06-10 22:35:00,
2013-06-10 16:40:00,92.8,61.5,29.50,West,259,0.0,-999.0,13,-99.99,,,0.00,251.0,cwc,2013-06-10 22:40:00,
2013-06-10 16:45:00,92.2,60.9,29.50,NNW,342,5.0,-999.0,13,-99.99,,,0.00,404.0,cwc,2013-06-10 22:45:00,
2013-06-10 16:50:00,92.0,61.0,29.50,NE,53,7.0,-999.0,14,-99.99,,,0.00,352.0,cwc,2013-06-10 22:50:00,
2013-06-10 16:55:00,92.0,61.0,29.50,NE,53,5.0,-999.0,14,-99.99,,,0.00,485.0,cwc,2013-06-10 22:55:00,
2013-06-10 17:00:00,92.0,61.0,29.50,NE,44,5.0,-999.0,14,-99.99,,,0.00,483.0,cwc,2013-06-10 23:00:00,
2013-06-10 17:05:00,91.9,60.9,29.50,ENE,63,9.0,-999.0,14,-99.99,,,0.00,450.0,cwc,2013-06-10 23:05:00,
2013-06-10 17:10:00,91.7,60.7,29.50,North,11,13.0,-999.0,14,-99.99,,,0.00,425.0,cwc,2013-06-10 23:10:00,
2013-06-10 17:15:00,91.4,60.4,29.49,South,170,7.0,-999.0,14,-99.99,,,0.00,214.0,cwc,2013-06-10 23:15:00,
2013-06-10 17:20:00,91.3,60.3,29.49,ESE,115,2.0,-999.0,14,-99.99,,,0.00,304.0,cwc,2013-06-10 23:20:00,
2013-06-10 17:25:00,91.5,60.5,29.49,SSE,148,0.0,-999.0,14,-99.99,,,0.00,336.0,cwc,2013-06-10 23:25:00,
2013-06-10 17:30:00,91.7,60.4,29.49,ENE,63,0.0,-999.0,13,-99.99,,,0.00,394.0,cwc,2013-06-10 23:30:00,
2013-06-10 17:35:00,91.8,60.8,29.48,ENE,63,1.0,-999.0,14,-99.99,,,0.00,267.0,cwc,2013-06-10 23:35:00,
2013-06-10 17:40:00,92.1,60.8,29.48,SSE,158,1.0,-999.0,13,-99.99,,,0.00,336.0,cwc,2013-06-10 23:40:00,
2013-06-10 17:45:00,92.2,60.9,29.48,SSE,159,0.0,-999.0,13,-99.99,,,0.00,446.0,cwc,2013-06-10 23:45:00,
2013-06-10 17:50:00,92.5,61.2,29.48,SSE,159,0.0,-999.0,13,-99.99,,,0.00,322.0,cwc,2013-06-10 23:50:00,
2013-06-10 17:55:00,92.8,61.5,29.48,SSE,159,0.0,-999.0,13,-99.99,,,0.00,260.0,cwc,2013-06-10 23:55:00,
2013-06-10 18:00:00,93.1,61.8,29.48,SSE,159,0.0,-999.0,13,-99.99,,,0.00,153.0,cwc,2013-06-11 00:00:00,
2013-06-10 18:05:00,93.2,61.9,29.48,SSE,159,0.0,-999.0,13,-99.99,,,0.00,278.0,cwc,2013-06-11 00:05:00,
2013-06-10 18:10:00,93.3,62.0,29.48,SSE,159,0.0,-999.0,13,-99.99,,,0.00,241.0,cwc,2013-06-11 00:10:00,
2013-06-10 18:15:00,93.4,62.8,29.48,SSE,159,0.0,-999.0,15,-99.99,,,0.00,179.0,cwc,2013-06-11 00:15:00,
2013-06-10 18:20:00,93.2,61.9,29.47,SSE,159,1.0,-999.0,13,-99.99,,,0.00,193.0,cwc,2013-06-11 00:20:00,
2013-06-10 18:25:00,93.1,61.8,29.47,SSE,159,0.0,-999.0,13,-99.99,,,0.00,125.0,cwc,2013-06-11 00:25:00,
2013-06-10 18:30:00,92.9,61.2,29.47,SSE,159,4.0,-999.0,12,-99.99,,,0.00,118.0,cwc,2013-06-11 00:30:00,
2013-06-10 18:35:00,92.6,60.9,29.48,SSW,202,6.0,-999.0,12,-99.99,,,0.00,109.0,cwc,2013-06-11 00:35:00,
2013-06-10 18:40:00,92.4,60.7,29.48,South,184,5.0,-999.0,12,-99.99,,,0.00,109.0,cwc,2013-06-11 00:40:00,
2013-06-10 18:45:00,92.2,60.5,29.48,SSW,194,4.0,-999.0,12,-99.99,,,0.00,104.0,cwc,2013-06-11 00:45:00,
2013-06-10 18:50:00,92.1,60.4,29.48,SW,229,7.0,-999.0,12,-99.99,,,0.00,88.0,cwc,2013-06-11 00:50:00,
2013-06-10 18:55:00,92.0,60.0,29.48,SSW,198,4.0,-999.0,11,-99.99,,,0.00,84.0,cwc,2013-06-11 00:55:00,
2013-06-10 19:00:00,92.0,60.3,29.47,SSW,195,4.0,-999.0,12,-99.99,,,0.00,76.0,cwc,2013-06-11 01:00:00,
2013-06-10 19:05:00,91.9,60.2,29.48,SSW,194,2.0,-999.0,12,-99.99,,,0.00,65.0,cwc,2013-06-11 01:05:00,
2013-06-10 19:10:00,91.8,60.1,29.48,SSW,212,3.0,-999.0,12,-99.99,,,0.00,56.0,cwc,2013-06-11 01:10:00,
2013-06-10 19:15:00,91.7,60.0,29.48,SSW,211,1.0,-999.0,12,-99.99,,,0.00,56.0,cwc,2013-06-11 01:15:00,
2013-06-10 19:20:00,91.5,59.8,29.48,SSW,211,2.0,-999.0,12,-99.99,,,0.00,54.0,cwc,2013-06-11 01:20:00,
2013-06-10 19:25:00,91.3,59.6,29.48,SSW,212,2.0,-999.0,12,-99.99,,,0.00,54.0,cwc,2013-06-11 01:25:00,
2013-06-10 19:30:00,91.1,59.4,29.48,SSW,212,0.0,-999.0,12,-99.99,,,0.00,54.0,cwc,2013-06-11 01:30:00,
2013-06-10 19:35:00,90.9,59.2,29.48,SSW,212,4.0,-999.0,12,-99.99,,,0.00,47.0,cwc,2013-06-11 01:35:00,
2013-06-10 19:40:00,90.6,59.3,29.50,SSE,164,8.0,-999.0,13,-99.99,,,0.00,42.0,cwc,2013-06-11 01:40:00,
2013-06-10 19:45:00,90.3,58.6,29.48,East,97,9.0,-999.0,12,-99.99,,,0.00,35.0,cwc,2013-06-11 01:45:00,
2013-06-10 19:50:00,90.3,58.6,29.48,NE,56,0.0,-999.0,12,-99.99,,,0.00,26.0,cwc,2013-06-11 01:50:00,
2013-06-10 19:55:00,90.2,58.5,29.48,East,90,6.0,-999.0,12,-99.99,,,0.00,21.0,cwc,2013-06-11 01:55:00,
2013-06-10 20:00:00,90.0,58.3,29.48,SSW,193,4.0,-999.0,12,-99.99,,,0.00,16.0,cwc,2013-06-11 02:00:00,
2013-06-10 20:05:00,89.7,58.4,29.48,SSW,192,1.0,-999.0,13,-99.99,,,0.00,11.0,cwc,2013-06-11 02:05:00,
2013-06-10 20:10:00,89.5,58.2,29.49,SSW,192,3.0,-999.0,13,-99.99,,,0.00,7.0,cwc,2013-06-11 02:10:00,
2013-06-10 20:15:00,89.5,58.2,29.50,SW,227,5.0,-999.0,13,-99.99,,,0.00,5.0,cwc,2013-06-11 02:15:00,
2013-06-10 20:20:00,89.6,58.3,29.49,SE,140,1.0,-999.0,13,-99.99,,,0.00,0.0,cwc,2013-06-11 02:20:00,
2013-06-10 20:25:00,89.5,58.2,29.49,South,178,3.0,-999.0,13,-99.99,,,0.00,0.0,cwc,2013-06-11 02:25:00,
2013-06-10 20:30:00,89.4,58.1,29.49,South,171,0.0,-999.0,13,-99.99,,,0.00,0.0,cwc,2013-06-11 02:30:00,
2013-06-10 20:35:00,89.2,57.9,29.49,South,171,0.0,-999.0,13,-99.99,,,0.00,0.0,cwc,2013-06-11 02:35:00,
2013-06-10 20:40:00,89.0,57.7,29.49,South,171,1.0,-999.0,13,-99.99,,,0.00,0.0,cwc,2013-06-11 02:40:00,
2013-06-10 20:45:00,88.8,57.5,29.49,South,171,0.0,-999.0,13,-99.99,,,0.00,0.0,cwc,2013-06-11 02:45:00,
2013-06-10 20:50:00,88.5,57.5,29.50,South,171,0.0,-999.0,14,-99.99,,,0.00,0.0,cwc,2013-06-11 02:50:00,
2013-06-10 20:55:00,87.9,57.3,29.50,South,171,0.0,-999.0,15,-99.99,,,0.00,0.0,cwc,2013-06-11 02:55:00,
2013-06-10 21:00:00,87.4,56.8,29.49,South,171,0.0,-999.0,15,-99.99,,,0.00,0.0,cwc,2013-06-11 03:00:00,
2013-06-10 21:05:00,86.8,55.8,29.50,South,171,1.0,-999.0,14,-99.99,,,0.00,0.0,cwc,2013-06-11 03:05:00,
2013-06-10 21:10:00,86.0,55.4,29.50,South,171,2.0,-999.0,15,-99.99,,,0.00,0.0,cwc,2013-06-11 03:10:00,
2013-06-10 21:15:00,85.3,54.7,29.50,South,171,0.0,-999.0,15,-99.99,,,0.00,0.0,cwc,2013-06-11 03:15:00,
2013-06-10 21:20:00,84.8,54.2,29.50,South,171,2.0,-999.0,15,-99.99,,,0.00,0.0,cwc,2013-06-11 03:20:00,
2013-06-10 21:25:00,84.4,53.8,29.50,South,171,4.0,-999.0,15,-99.99,,,0.00,0.0,cwc,2013-06-11 03:25:00,
2013-06-10 21:30:00,83.6,53.4,29.50,South,171,4.0,-999.0,16,-99.99,,,0.00,0.0,cwc,2013-06-11 03:30:00,
2013-06-10 21:40:00,82.3,52.1,29.51,South,171,3.0,-999.0,16,-99.99,,,0.00,0.0,cwc,2013-06-11 03:40:00,
2013-06-10 21:45:00,81.8,51.6,29.51,South,171,0.0,-999.0,16,-99.99,,,0.00,0.0,cwc,2013-06-11 03:45:00,
2013-06-10 21:55:00,81.0,50.8,29.53,South,173,5.0,-999.0,16,-99.99,,,0.00,0.0,cwc,2013-06-11 03:55:00,
2013-06-10 22:00:00,81.5,51.3,29.53,SSW,198,0.0,-999.0,16,-99.99,,,0.00,0.0,cwc,2013-06-11 04:00:00,
2013-06-10 22:05:00,81.8,51.6,29.54,SSW,198,4.0,-999.0,16,-99.99,,,0.00,0.0,cwc,2013-06-11 04:05:00,
2013-06-10 22:10:00,81.8,51.2,29.54,SSW,198,5.0,-999.0,15,-99.99,,,0.00,0.0,cwc,2013-06-11 04:10:00,
2013-06-10 22:15:00,82.7,52.1,29.53,SSW,198,0.0,-999.0,15,-99.99,,,0.00,0.0,cwc,2013-06-11 04:15:00,
2013-06-10 22:20:00,83.5,52.9,29.53,SSW,206,7.0,-999.0,15,-99.99,,,0.00,0.0,cwc,2013-06-11 04:20:00,
2013-06-10 22:25:00,84.9,54.3,29.53,SSW,202,1.0,-999.0,15,-99.99,,,0.00,0.0,cwc,2013-06-11 04:25:00,
2013-06-10 22:30:00,84.8,54.6,29.53,SSW,202,0.0,-999.0,16,-99.99,,,0.00,0.0,cwc,2013-06-11 04:30:00,
2013-06-10 22:35:00,84.1,53.5,29.53,SSW,205,1.0,-999.0,15,-99.99,,,0.00,0.0,cwc,2013-06-11 04:35:00,
2013-06-10 22:40:00,83.7,53.1,29.53,SSW,205,1.0,-999.0,15,-99.99,,,0.00,0.0,cwc,2013-06-11 04:40:00,
2013-06-10 22:45:00,83.6,53.0,29.53,SSW,205,0.0,-999.0,15,-99.99,,,0.00,0.0,cwc,2013-06-11 04:45:00,
2013-06-10 22:50:00,83.6,53.0,29.53,SSW,206,3.0,-999.0,15,-99.99,,,0.00,0.0,cwc,2013-06-11 04:50:00,
2013-06-10 23:00:00,83.6,53.0,29.54,SSW,207,4.0,-999.0,15,-99.99,,,0.00,0.0,cwc,2013-06-11 05:00:00,
2013-06-10 23:05:00,83.3,52.7,29.54,SSW,207,2.0,-999.0,15,-99.99,,,0.00,0.0,cwc,2013-06-11 05:05:00,
2013-06-10 23:10:00,83.1,52.5,29.54,SSW,207,0.0,-999.0,15,-99.99,,,0.00,0.0,cwc,2013-06-11 05:10:00,
2013-06-10 23:15:00,82.6,52.4,29.55,SSW,207,3.0,-999.0,16,-99.99,,,0.00,0.0,cwc,2013-06-11 05:15:00,
2013-06-10 23:20:00,82.0,51.8,29.55,SSW,207,6.0,-999.0,16,-99.99,,,0.00,0.0,cwc,2013-06-11 05:20:00,
2013-06-10 23:25:00,81.6,51.4,29.55,SSW,203,1.0,-999.0,16,-99.99,,,0.00,0.0,cwc,2013-06-11 05:25:00,
2013-06-10 23:30:00,81.5,51.3,29.55,SSW,202,0.0,-999.0,16,-99.99,,,0.00,0.0,cwc,2013-06-11 05:30:00,
2013-06-10 23:35:00,81.4,51.5,29.55,SSW,202,3.0,-999.0,17,-99.99,,,0.00,0.0,cwc,2013-06-11 05:35:00,
2013-06-10 23:40:00,81.4,51.5,29.55,SSW,202,2.0,-999.0,17,-99.99,,,0.00,0.0,cwc,2013-06-11 05:40:00,
2013-06-10 23:45:00,81.4,51.5,29.55,SSW,202,3.0,-999.0,17,-99.99,,,0.00,0.0,cwc,2013-06-11 05:45:00,
2013-06-10 23:50:00,81.2,51.3,29.55,SSW,202,3.0,-999.0,17,-99.99,,,0.00,0.0,cwc,2013-06-11 05:50:00,
2013-06-10 23:55:00,81.1,51.2,29.55,SSW,202,4.0,-999.0,17,-99.99,,,0.00,0.0,cwc,2013-06-11 05:55:00,